Torna al catalogo

STARLINK-30369

AttivoComunicazioniVLEO
NORAD 57781·PAYLOAD·🇺🇸 United States

Lanciato Sep 4, 2023 da Cape Canaveral Space Force Station

Loading…

Prossimi Passaggi (prossime 24 ore)

TLE

AggiornatoSource: CelesTrak SupGP

Epoca: Sep 15, 2026, 02:42 UTC

1 57781C 23134L   26258.11298611 -.00027675  00000+0 -10026-2 0  2580
2 57781  42.9993 204.5940 0000948 268.6571 249.6173 15.27586858    14

Traccia STARLINK-30369 in tempo reale con AllMySat

Download on the App Store